Meteo Giornale » Osservazioni meteo Stati Uniti (USA) » Ithaca-Tompkins Co
ore: 13:56 - Osservazioni Meteo Ithaca-Tompkins Co
Lat. 42° 29' N Lon. 76° 27' W Alt. 335 metri s.l.m.
26 °C
Coperto
Temp. 24 Ore
18 °C
26 °C
Ovest/Sud-Ovest
9.3 Km/h
Dew point 23 °C
Umidità 83 %
Visibilità 10 Km
Il sole sorge alle ore 06:31
Il sole tramonta alle ore 19:40
| Data e Ora | Cielo e Fenomeni | T °C | DP °C | Um. % | Pres. hPa | Vis. km | Vento km/h | |
|---|---|---|---|---|---|---|---|---|
| Oggi h: 13:56 | Coperto | 26 | 23 | 83 | 1015 | 10 | O/SO 9.3 | |
| Oggi h: 12:56 | Molto Nuvoloso | 25 | 23 | 88 | 1015 | 10 | SO 9.3 | |
| Oggi h: 11:56 | Coperto | 23 | 22 | 94 | 1015 | 14 | O/SO 7.4 | |
| Oggi h: 10:56 | Coperto | 22 | 21 | 94 | 1015 | 10 | S/SE 7.4 | |
| Oggi h: 09:56 | Pioggia | 22 | 21 | 94 | 1015 | 13 | S/SE 11.1 | |
| Oggi h: 08:56 | Pioggia | 21 | 21 | 100 | 1015 | 13 | S 7.4 | |
| Oggi h: 08:11 | Coperto | 21 | 21 | 100 | 1015 | 13 | S/SE 9.3 | |
| Oggi h: 07:56 | Temporale nelle vicinanze Pioggia | 21 | 21 | 100 | 1015 | 11 | N 5.5 | |
| Oggi h: 07:29 | Temporale nelle vicinanze | 20 | 20 | 100 | 1015 | 10 | N 0 | |
| Oggi h: 07:24 | Temporale nelle vicinanze Temporale | 20 | 20 | 100 | 1015 | 2 | N 0 | |
| Oggi h: 07:10 | Temporale | 21 | 20 | 94 | 1016 | 2 | N 5.5 | |
| Oggi h: 07:02 | Temporale | 20 | 20 | 100 | 1015 | 2 | N 0 | |
| Oggi h: 06:56 | Pioggia Foschia | 19 | 19 | 100 | 1015 | 2 | N 7.4 | |
| Oggi h: 05:56 | Pioggia | 19 | 19 | 100 | 1015 | 11 | N 5.5 | |
| Oggi h: 05:31 | Pioggia Foschia | 19 | 19 | 100 | 1015 | 10 | E 7.4 | |
| Oggi h: 05:30 | Pioggia Foschia | 19 | 19 | 100 | 1015 | 10 | E 7.4 | |
| Oggi h: 04:56 | Coperto | 20 | 19 | 93 | 1015 | 10 | N 0 | |
| Oggi h: 03:56 | Molto Nuvoloso | 19 | 19 | 100 | 1016 | 13 | S/SE 7.4 | |
| Oggi h: 02:56 | Pioggia Foschia | 18 | 18 | 100 | 1016 | 10 | N 5.5 | |
| Oggi h: 01:56 | Pioggia | 19 | 18 | 93 | 1016 | 13 | N 0 | |
| Oggi h: 00:56 | Sereno | 18 | 18 | 100 | 1017 | 10 | N 0 | |
| Oggi h: 00:25 | Foschia | 18 | 18 | 100 | 0 | 2 | N 0 | |
| Ieri h: 23:56 | Foschia | 18 | 18 | 100 | 1017 | 2 | N 0 | |
| Ieri h: 22:56 | Coperto | 19 | 19 | 100 | 1017 | 13 | N 0 | |
| Ieri h: 21:56 | Coperto | 19 | 19 | 100 | 1018 | 10 | N 0 | |
| Ieri h: 20:56 | Coperto | 19 | 19 | 100 | 1018 | 11 | S/SE 9.3 | |
| Ieri h: 19:56 | Pioggia Foschia | 19 | 19 | 100 | 1017 | 5 | N 0 | |
| Ieri h: 18:55 | Pioggia Foschia | 19 | 19 | 100 | 1018 | 6 | S/SE 7.4 | |
| Ieri h: 17:56 | Pioggia Foschia | 19 | 19 | 100 | 1018 | 8 | N 5.5 | |
| Ieri h: 16:56 | Pioggia Foschia | 19 | 19 | 100 | 1018 | 5 | N 5.5 | |
| Ieri h: 15:56 | Pioggia Foschia | 19 | 19 | 100 | 1019 | 8 | N 5.5 | |
| Ieri h: 14:56 | Pioggia Foschia | 19 | 18 | 93 | 1019 | 8 | S/SE 11.1 | |



